#timestamp,LO_Frequency,Hit,StdDev 
1700020815.3,286046998.5,N
1700020835.2,286046996.5,N
1700020855.0,286046999.2,N
1700020855.9,286046999.2,N
1700020875.7,286046999.0,N
1700020895.6,286046996.6,N
1700020915.4,286046998.2,N
1700020935.3,286046998.7,N
1700020955.1,286046999.2,N
1700020956.0,286046999.2,N
1700020975.8,286046996.8,N
1700020995.7,286046997.7,N
1700021015.5,286046997.9,N
1700021035.3,286046997.9,N
1700021055.2,286046997.6,N
1700021075.0,286046997.3,N
1700021075.9,286046997.3,N
1700021095.8,286046998.0,N
1700021115.6,286046995.3,N
1700021135.4,286046995.7,N
1700021155.3,286046994.9,Y
1700021175.1,286046998.5,P
1700021195.9,286047001.1,P
1700021215.7,286047000.8,N
1700021235.5,286047001.2,N
1700021255.4,286046998.7,N
1700021275.2,286047000.8,N
1700021295.0,286046998.5,N
1700021295.9,286046998.5,N
1700021315.8,286047000.4,N
1700021335.6,286047001.1,N
1700021355.5,286047001.1,N
1700021375.3,286047000.4,N
1700021395.1,286046998.1,N
1700021415.9,286047000.7,N
1700021435.7,286047000.6,N
1700021455.5,286047000.5,N
1700021475.4,286047000.4,N
1700021495.2,286046998.2,N
1700021515.1,286047000.9,N
1700021516.0,286047000.9,N
1700021535.8,286046999.6,N
1700021555.6,286047001.0,N
1700021575.5,286047000.8,N
1700021595.3,286046998.2,N
1700021615.1,286047000.5,N
1700021635.9,286046998.2,N
1700021655.7,286046998.8,N
1700021675.6,286046999.1,N
1700021695.4,286046998.4,N
1700021715.2,286047003.0,N
1700021735.1,286047001.7,N
1700021736.0,286047001.7,N
1700021755.8,286047001.5,N
1700021775.6,286047002.8,N
1700021795.5,286047001.0,N
1700021815.3,286046998.8,N
1700021835.2,286046999.0,N
1700021855.9,286046999.0,N
1700021875.7,286046999.5,N
1700021895.6,286046999.4,N
1700021915.4,286046997.0,N
1700021935.2,286046996.5,N
1700021955.1,286046996.9,N
1700021956.0,286046996.9,N
1700021975.8,286046999.2,N
1700021995.7,286046999.1,N
1700022015.5,286046999.3,N
1700022035.3,286046999.4,N
1700022055.2,286046999.4,N
1700022075.0,286046998.9,N
1700022075.9,286046998.9,N
1700022095.7,286046996.7,N
1700022115.6,286046998.7,N
1700022135.4,286046998.5,N
1700022155.3,286046998.2,N
1700022175.1,286047000.7,N
1700022176.0,286047000.7,N
1700022195.8,286046999.9,N
1700022215.7,286047000.0,N
1700022235.5,286047001.1,N
1700022255.4,286047000.9,N
1700022275.2,286047000.9,N
1700022295.0,286047002.1,N
1700022295.9,286047002.1,N
1700022315.8,286047001.0,N
1700022335.6,286047000.3,N
1700022355.4,286047000.7,N
1700022375.3,286046998.2,N
1700022395.1,286046998.3,N
1700022415.9,286047000.7,N
1700022435.7,286046998.1,N
1700022455.5,286046998.9,N
1700022475.4,286046999.0,N
1700022495.2,286046999.5,N
1700022515.1,286046999.2,N
1700022516.0,286046999.2,N
1700022535.8,286046998.7,N
1700022555.6,286046998.8,N
1700022575.5,286046998.3,N
1700022595.3,286046999.2,N
1700022615.1,286046999.3,N
1700022635.9,286046998.2,N
1700022655.7,286046998.6,N
1700022675.6,286047000.3,N
1700022695.4,286047000.8,N
1700022715.2,286046998.3,N
1700022735.1,286046999.9,N
1700022736.0,286046999.9,N
1700022755.8,286047000.2,N
1700022775.6,286046998.1,N
1700022795.5,286046998.7,N
1700022815.3,286046998.6,N
1700022835.2,286047000.6,N
1700022855.9,286047001.1,N
1700022875.7,286046998.5,N
1700022895.6,286046998.4,N
1700022915.4,286046998.8,N
1700022935.3,286046998.2,N
1700022955.1,286047000.9,N
1700022956.0,286047000.9,N
1700022975.8,286047000.9,N
1700022995.7,286046998.1,N
1700023015.5,286046998.7,N
1700023035.3,286046999.1,N
1700023055.2,286046999.2,N
1700023075.0,286046997.2,N
1700023075.9,286046997.2,N
1700023095.8,286046996.7,Y
1700023115.6,286046998.4,P
1700023135.4,286047000.1,N
1700023155.3,286047001.6,N
1700023175.1,286047004.2,Y
1700023195.9,286047001.5,P
1700023215.7,286047001.9,N
1700023235.5,286047001.5,N
1700023255.4,286047001.4,N
1700023275.2,286047001.3,N
1700023295.0,286047002.0,N
1700023295.9,286047002.0,N
1700023315.8,286047002.7,Y
1700023335.6,286046999.8,P
1700023355.5,286047000.0,N
1700023375.3,286047002.6,P
1700023395.1,286047001.4,N
1700023415.9,286047001.8,N
1700023435.7,286047001.4,N
1700023455.6,286047001.8,N
1700023475.2,286047001.8,N
1700023495.1,286047002.2,N
1700023496.0,286047002.2,N
1700023515.8,286047002.7,Y
1700023535.7,286047000.9,P
1700023555.5,286047000.4,N
1700023575.3,286047001.1,N
1700023595.2,286047000.8,N
1700023615.0,286047001.0,N
1700023615.9,286047001.0,N
1700023635.8,286046998.2,Y
1700023655.6,286046996.5,P
1700023675.4,286046997.1,N
1700023695.3,286046996.8,N
1700023715.1,286046999.1,N
1700023735.9,286046997.3,N
1700023755.7,286046997.5,N
1700023775.5,286046998.0,N
1700023795.4,286046995.3,Y
1700023815.2,286046996.5,P
1700023835.0,286046999.3,N
1700023835.9,286046999.3,N
1700023855.8,286046999.6,N
1700023875.6,286046998.7,N
1700023895.5,286046998.2,N
1700023915.3,286047001.0,N
1700023935.1,286046998.1,N
1700023955.9,286046998.1,N
1700023975.7,286046999.3,N
1700023995.6,286046998.9,N
1700024015.4,286047001.0,N
1700024035.2,286047000.0,N
1700024055.1,286047000.1,N
1700024056.0,286047000.1,N
1700024075.8,286047000.3,N
1700024095.6,286047002.5,N
1700024115.5,286047000.2,N
1700024135.3,286047000.4,N
1700024155.2,286047000.2,N
1700024175.9,286047001.0,N
1700024195.7,286047000.9,N
1700024215.6,286047000.5,N
1700024235.4,286047000.0,N
1700024255.2,286047002.4,N
1700024275.1,286047002.2,N
1700024276.0,286047002.2,N
1700024295.8,286047001.6,N
1700024315.7,286047002.4,N
1700024335.5,286047002.6,N
1700024355.3,286047002.6,N
1700024375.2,286047002.4,N
1700024395.0,286046999.9,N
1700024395.9,286046999.9,N
